Temp
-10 -11 -10 -10 -10 -10 -10 -10 -10 -10 -10 -10 -10 -10 -11 -10 -10 -10 -10 -10 -10 -10 -10 -10 -10 -10 -10 -10 -10 -10 -9 -9 -9
-11 -11 -10 -10 -10 -11 -11 -11 -10 -11 -10 -10 -11 -11 -11 -11 -11 -10 -10 -10 -10 -10 -10 -10 -10 -10 -10 -10 -10 -10 -10 -10 -10
-11 -11 -10 -10 -10 -10 -11 -10 -10 -10 -10 -10 -11 -11 -11 -11 -10 -10 -10 -10 -10 -10 -10 -10 -10 -11 -11 -10 -10 -10 -10 -10 -10
-11 -11 -11 -11 -10 -10 -10 -11 -10 -10 -10 -10 -11 -11 -11 -11 -11 -11 -11 -10 -10 -10 -10 -10 -10 -10 -11 -11 -10 -10 -10 -10 -10
-11 -11 -11 -10 -10 -10 -10 -10 -10 -10 -10 -11 -11 -11 -11 -11 -11 -11 -11 -11 -10 -10 -10 -10 -10 -10 -10 -10 -11 -10 -10 -10 -10
-12 -12 -11 -11 -10 -10 -10 -10 -10 -10 -10 -11 -11 -11 -11 -11 -11 -11 -11 -11 -11 -11 -10 -10 -10 -10 -11 -10 -10 -11 -10 -10 -10
-12 -12 -12 -12 -11 -11 -10 -10 -10 -11 -11 -11 -11 -11 -11 -11 -11 -11 -11 -11 -11 -10 -11 -10 -10 -10 -10 -10 -10 -11 -10 -11 -11
-12 -12 -12 -12 -12 -12 -12 -11 -11 -11 -11 -11 -11 -12 -12 -11 -11 -11 -11 -11 -11 -11 -10 -11 -11 -11 -11 -11 -11 -10 -11 -12 -11
-13 -13 -13 -13 -13 -12 -12 -13 -12 -11 -11 -12 -12 -11 -12 -12 -11 -11 -11 -11 -11 -11 -11 -11 -11 -11 -11 -11 -11 -12 -12 -12 -11
-13 -13 -13 -13 -13 -13 -13 -13 -13 -14 -13 -13 -13 -12 -13 -12 -12 -12 -12 -12 -12 -11 -11 -11 -11 -12 -12 -13 -12 -12 -12 -12 -12
-13 -13 -13 -13 -13 -13 -13 -13 -13 -14 -14 -14 -14 -14 -13 -14 -13 -14 -14 -13 -14 -13 -13 -13 -13 -14 -15 -14 -13 -13 -13 -12 -12
-13 -13 -13 -13 -13 -13 -13 -13 -14 -14 -14 -14 -14 -14 -13 -13 -14 -14 -14 -13 -13 -13 -13 -13 -14 -15 -16 -14 -15 -13 -13 -13 -13
-13 -13 -13 -13 -13 -13 -13 -13 -13 -13 -13 -13 -13 -13 -13 -13 -13 -14 -15 -14 -14 -14 -14 -13 -14 -14 -14 -14 -14 -15 -14 -14 -14
-13 -13 -13 -13 -13 -13 -13 -13 -13 -13 -13 -13 -13 -13 -13 -13 -13 -14 -14 -14 -14 -14 -14 -13 -13 -13 -14 -14 -14 -13 -13 -13 -13
-13 -13 -13 -13 -13 -13 -13 -13 -13 -13 -13 -13 -13 -13 -13 -13 -13 -14 -14 -14 -14 -14 -14 -14 -14 -14 -14 -14 -14 -13 -13 -13 -13
-13 -13 -13 -13 -13 -13 -13 -13 -13 -13 -13 -13 -13 -13 -13 -13 -13 -14 -14 -14 -14 -13 -14 -14 -13 -13 -13 -13 -13 -13 -13 -13 -13
-13 -13 -13 -13 -13 -13 -14 -14 -14 -13 -13 -13 -13 -13 -13 -13 -13 -14 -14 -13 -13 -13 -13 -13 -14 -14 -13 -13 -13 -13 -13 -13 -13
-13 -13 -13 -13 -13 -13 -13 -14 -14 -14 -13 -13 -13 -14 -14 -13 -14 -14 -14 -13 -13 -13 -14 -14 -14 -14 -14 -14 -14 -13 -13 -13 -13
-13 -13 -13 -13 -13 -13 -14 -14 -14 -14 -14 -14 -14 -14 -14 -14 -14 -14 -14 -14 -14 -14 -14 -14 -15 -14 -14 -14 -14 -14 -14 -14 -14
-13 -13 -13 -14 -14 -14 -14 -14 -14 -14 -14 -14 -14 -14 -14 -15 -15 -15 -15 -14 -14 -14 -14 -15 -15 -15 -15 -14 -14 -14 -14 -14 -14
Height
5837 5838 5841 5844 5846 5847 5849 5850 5851 5853 5854 5856 5858 5860 5862 5862 5864 5867 5867 5868 5869 5869 5870 5871 5872 5873 5873 5874 5875 5875 5876 5876 5876
5834 5835 5839 5842 5842 5845 5847 5848 5849 5850 5851 5853 5855 5857 5860 5861 5862 5864 5865 5865 5867 5868 5868 5869 5870 5870 5871 5872 5873 5873 5874 5874 5874
5832 5832 5836 5840 5841 5841 5844 5845 5846 5847 5849 5850 5852 5854 5856 5857 5859 5861 5862 5863 5864 5865 5866 5866 5867 5868 5869 5869 5869 5870 5870 5871 5872
5830 5831 5831 5837 5838 5838 5839 5841 5842 5844 5845 5846 5849 5851 5854 5854 5855 5859 5859 5860 5861 5862 5863 5864 5864 5864 5865 5865 5866 5866 5867 5868 5869
5830 5829 5831 5832 5835 5836 5836 5837 5837 5840 5841 5841 5845 5848 5850 5852 5854 5855 5857 5857 5858 5858 5858 5860 5860 5860 5860 5861 5861 5863 5863 5865 5865
5828 5828 5828 5828 5830 5833 5832 5833 5833 5834 5835 5837 5842 5843 5845 5848 5849 5852 5854 5854 5854 5855 5856 5858 5857 5857 5857 5857 5856 5857 5858 5859 5860
5825 5826 5826 5825 5826 5829 5830 5830 5830 5830 5833 5835 5837 5840 5841 5843 5846 5847 5850 5850 5851 5852 5853 5854 5855 5854 5854 5852 5852 5852 5853 5854 5855
5823 5824 5824 5824 5823 5825 5827 5827 5828 5829 5829 5832 5834 5836 5837 5839 5841 5843 5845 5846 5847 5848 5849 5849 5849 5850 5849 5849 5848 5848 5849 5850 5851
5819 5821 5822 5823 5821 5824 5825 5825 5825 5826 5826 5828 5830 5832 5833 5835 5837 5839 5841 5842 5843 5844 5844 5845 5844 5845 5844 5845 5845 5846 5846 5847 5847
5817 5817 5819 5819 5820 5821 5823 5824 5824 5824 5824 5825 5827 5828 5830 5832 5833 5835 5836 5837 5838 5839 5840 5840 5841 5841 5841 5843 5843 5843 5843 5845 5845
5816 5815 5818 5817 5817 5818 5820 5822 5823 5822 5822 5823 5825 5827 5827 5828 5829 5831 5833 5835 5835 5835 5835 5836 5837 5837 5838 5840 5841 5841 5842 5843 5842
5812 5813 5815 5816 5813 5813 5816 5819 5819 5819 5820 5822 5822 5824 5825 5824 5825 5828 5830 5832 5833 5833 5834 5834 5834 5836 5836 5837 5838 5840 5839 5840 5840
5808 5808 5812 5813 5810 5810 5812 5815 5816 5817 5818 5819 5820 5821 5820 5820 5819 5823 5825 5827 5829 5830 5832 5832 5832 5832 5832 5833 5833 5834 5835 5835 5836
5803 5804 5806 5809 5808 5806 5808 5810 5812 5814 5815 5815 5815 5816 5816 5817 5817 5819 5821 5823 5825 5826 5827 5827 5828 5828 5828 5829 5829 5830 5831 5832 5832
5796 5799 5801 5804 5804 5802 5804 5805 5807 5809 5810 5811 5811 5811 5812 5814 5815 5816 5817 5818 5819 5821 5822 5822 5822 5822 5822 5822 5823 5824 5824 5825 5825
5791 5793 5795 5799 5799 5798 5799 5800 5802 5803 5804 5805 5806 5807 5807 5808 5809 5810 5811 5812 5813 5814 5816 5815 5815 5815 5816 5816 5817 5817 5818 5818 5818
5785 5787 5788 5792 5794 5793 5794 5795 5796 5797 5798 5799 5800 5800 5802 5802 5803 5804 5805 5805 5807 5807 5807 5808 5808 5808 5809 5809 5810 5810 5810 5811 5811
5778 5780 5781 5784 5787 5787 5787 5789 5789 5790 5791 5792 5793 5793 5793 5795 5796 5796 5797 5797 5798 5799 5799 5800 5800 5800 5800 5801 5801 5801 5801 5802 5803
5769 5772 5774 5776 5779 5780 5780 5782 5783 5783 5784 5784 5785 5786 5786 5787 5790 5789 5788 5789 5789 5791 5792 5792 5792 5791 5791 5792 5793 5792 5792 5793 5793
5759 5763 5765 5767 5770 5771 5772 5773 5775 5776 5776 5776 5776 5777 5778 5779 5781 5781 5779 5779 5780 5782 5783 5783 5783 5783 5782 5781 5783 5782 5782 5783 5783
Wind_Speed
14 12 8 16 23 25 23 22 25 25 23 23 24 23 19 19 16 16 14 12 14 14 13 13 15 15 16 16 15 15 14 14 12
11 9 9 8 16 25 21 20 23 24 25 25 24 22 20 19 16 17 18 17 17 15 15 15 16 17 18 18 17 16 15 14 13
7 11 18 17 11 16 23 21 20 20 20 23 23 22 22 22 21 18 18 19 20 19 19 17 17 18 20 19 19 19 20 19 19
9 12 15 19 15 17 21 27 26 20 21 25 24 24 25 14 20 18 19 14 15 20 19 18 19 21 22 21 21 20 19 19 19
14 13 16 15 9 14 22 24 28 29 25 23 20 28 23 21 18 15 19 20 17 18 19 18 15 17 18 29 24 23 25 25 23
13 11 11 14 19 17 17 21 25 28 20 22 30 24 23 24 23 21 19 17 16 18 19 15 8 12 10 14 18 24 25 24 23
12 8 4 4 9 16 14 15 20 16 18 30 32 24 23 22 22 20 21 19 17 20 18 14 9 7 10 12 12 16 19 16 16
11 7 4 1 1 8 14 17 20 22 22 22 24 23 21 22 22 24 21 21 21 17 22 14 1 12 11 6 8 13 15 16 14
12 9 6 5 3 4 7 11 16 20 22 24 26 25 23 23 24 21 22 21 22 22 9 15 20 15 5 9 6 5 3 8 17
14 12 11 9 7 7 6 5 10 8 10 15 22 21 18 23 24 22 20 19 21 23 27 29 20 5 3 7 6 9 9 5 9
17 15 14 12 11 10 10 6 1 8 9 8 6 6 8 13 17 19 16 16 16 18 18 16 18 16 9 11 11 12 11 11 12
19 17 17 16 15 13 13 12 12 10 7 10 7 13 12 15 23 19 17 17 16 12 12 16 14 14 13 14 12 13 11 12 12
21 20 20 21 18 16 15 15 16 15 16 17 15 13 14 11 17 23 22 21 19 20 20 20 23 19 24 16 17 19 19 17 18
25 24 23 24 22 19 18 18 20 19 20 19 17 16 16 13 14 21 21 21 22 22 20 20 21 20 18 19 18 19 19 20 20
28 27 26 26 25 22 21 22 23 23 23 22 21 20 20 18 17 21 25 27 27 26 26 25 25 25 25 25 25 25 25 25 25
31 29 28 29 28 25 24 25 25 26 26 25 24 24 25 24 24 25 26 27 28 28 28 29 29 29 28 29 29 28 28 28 27
33 32 31 31 30 28 27 27 28 28 28 27 27 27 28 27 28 28 30 30 31 32 32 32 33 33 33 33 33 32 32 33 32
36 35 34 34 33 32 30 30 31 30 30 30 29 30 30 29 29 30 32 32 33 33 33 34 34 35 35 35 36 36 36 37 37
39 39 37 36 36 35 34 33 33 33 33 33 32 32 32 32 31 32 33 35 35 34 35 35 35 35 37 36 36 36 36 37 37
40 42 40 39 39 38 37 36 36 36 35 35 36 36 35 36 34 35 37 38 38 38 38 38 38 39 40 42 40 39 39 41 41
Wind_Direction
251 243 277 254 245 240 235 229 232 233 235 239 243 244 243 249 244 246 244 244 241 240 244 251 250 249 249 251 254 255 257 255 254
219 238 274 282 250 236 234 231 234 239 239 242 240 243 241 241 245 241 240 238 244 250 254 252 255 258 253 253 251 251 251 255 252
222 240 253 270 267 239 237 234 237 241 243 240 241 238 239 240 243 251 252 243 239 244 253 258 261 267 259 254 249 248 251 256 260
252 264 255 251 256 251 235 237 241 237 246 236 232 241 243 234 244 244 258 265 272 263 253 259 266 268 259 250 250 252 252 256 262
256 262 265 238 247 251 233 233 234 237 242 227 241 223 225 233 244 250 246 259 261 262 244 243 281 263 275 255 251 253 257 264 256
234 236 252 250 251 267 240 238 231 234 232 230 223 223 224 234 246 246 251 251 259 247 253 261 256 255 249 259 257 251 251 253 269
229 232 233 256 248 241 244 244 239 210 216 223 221 223 228 233 239 247 244 247 247 253 237 232 254 236 253 262 258 251 244 250 264
212 223 234 257 314 263 244 243 231 224 222 225 222 222 226 231 239 239 244 246 249 249 243 241 183 203 244 205 255 258 251 254 266
209 218 235 257 263 291 294 264 243 233 229 224 226 228 233 236 240 247 240 249 254 245 239 245 235 238 256 181 202 266 236 256 251
226 224 234 238 238 252 262 293 248 222 230 231 230 236 241 244 242 245 246 249 255 257 250 249 239 180 248 301 281 292 300 293 262
230 233 234 233 233 239 249 229 261 237 216 216 226 244 254 260 248 236 236 243 252 271 279 272 265 254 254 254 284 285 281 264 264
230 235 237 237 233 232 240 237 230 236 224 211 228 246 249 263 237 235 234 236 237 238 252 260 285 267 262 267 264 261 262 267 269
232 232 239 243 237 229 232 234 233 225 241 241 235 237 248 279 233 224 233 223 228 236 244 255 270 273 270 273 257 259 271 260 252
231 235 238 242 240 235 234 234 235 234 231 243 246 247 253 248 230 226 232 230 242 255 263 260 263 263 260 258 256 256 257 258 257
233 238 241 243 243 237 238 239 240 241 242 241 246 251 252 250 242 234 237 240 244 248 255 257 258 258 258 258 258 257 255 253 255
237 238 240 245 246 242 240 243 243 245 245 246 247 248 251 252 251 249 247 247 249 250 254 258 258 258 261 262 262 262 261 260 258
240 240 240 245 248 245 243 245 247 248 250 251 251 251 252 253 253 253 254 255 255 257 259 260 261 262 260 260 261 262 262 262 261
241 242 242 245 248 248 245 246 249 252 254 254 254 253 254 254 253 255 255 256 257 258 260 262 262 262 262 262 262 262 262 263 263
241 243 243 245 249 250 248 248 251 254 257 258 256 254 253 252 251 252 254 256 257 259 260 261 262 263 263 262 262 262 263 264 264
242 244 244 245 248 249 251 251 253 255 256 258 259 260 260 259 257 256 258 260 261 259 260 261 262 262 264 266 264 263 264 264 264